This is the latest recevied weather packets stored in our database for station/object WE0DX-1. If no packets are shown the sender has not sent any weather packets the latest 10 day(s).
| Time | Temp. | Humidity | Pressure | Rain* | Wind** | Luminosity | Snow |
|---|---|---|---|---|---|---|---|
| 1777963682 | 15° C | 41% | 1006.8 hPa | 0 mm | - | 0 W/m² | - |
| 1777963378 | 15° C | 41% | 1006.5 hPa | 0 mm | - | 0 W/m² | - |
| 1777963076 | 15° C | 41% | 1006.7 hPa | 0 mm | - | 0 W/m² | - |
| 1777962773 | 15° C | 41% | 1006.7 hPa | 0 mm | - | 0 W/m² | - |
| 1777962469 | 15.56° C | 40% | 1006.6 hPa | 0 mm | - | 0 W/m² | - |
| 1777962167 | 15.56° C | 41% | 1006.5 hPa | 0 mm | - | 0 W/m² | - |
| 1777961863 | 15.56° C | 40% | 1006.4 hPa | 0 mm | - | 0 W/m² | - |
| 1777961561 | 15.56° C | 40% | 1006.2 hPa | 0 mm | - | 0 W/m² | - |
| 1777961258 | 16.11° C | 40% | 1005.9 hPa | 0 mm | - | 0 W/m² | - |
| 1777960956 | 16.11° C | 42% | 1006.2 hPa | 0 mm | - | 0 W/m² | - |
| 1777960650 | 16.67° C | 42% | 1005.8 hPa | 0 mm | - | 0 W/m² | - |
| 1777960347 | 16.67° C | 40% | 1005.4 hPa | 0 mm | - | 0 W/m² | - |
| 1777960045 | 17.22° C | 40% | 1005.7 hPa | 0 mm | - | 0 W/m² | - |
| 1777959742 | 17.78° C | 40% | 1005.7 hPa | 0 mm | - | 0 W/m² | - |
| 1777959440 | 17.78° C | 39% | 1005.8 hPa | 0 mm | - | 0 W/m² | - |
| 1777959136 | 18.33° C | 39% | 1005.5 hPa | 0 mm | - | 0 W/m² | - |
| 1777958834 | 18.89° C | 39% | 1005.4 hPa | 0 mm | - | 0 W/m² | - |
| 1777958531 | 18.89° C | 38% | 1005.1 hPa | 0 mm | - | 0 W/m² | - |
| 1777958228 | 19.44° C | 37% | 1005 hPa | 0 mm | - | 0 W/m² | - |
| 1777957925 | 19.44° C | 38% | 1005.1 hPa | 0 mm | - | 0 W/m² | - |
| 1777957623 | 19.44° C | 38% | 1004.7 hPa | 0 mm | - | 0 W/m² | - |
| 1777957322 | 20° C | 38% | 1005 hPa | 0 mm | - | 0 W/m² | - |
| 1777957021 | 20° C | 38% | 1004.7 hPa | 0 mm | - | 0 W/m² | - |
| 1777956720 | 20° C | 39% | 1004.5 hPa | 0 mm | - | 0 W/m² | - |
| 1777956416 | 20° C | 38% | 1004.5 hPa | 0 mm | - | 0 W/m² | - |
* Rain latest hour (hover to see other rain measurements)
** Current wind speed in m/s (hover to see current wind gust speed)